SL-12 DEB, 43541

Orbit data source: Space-Track

SL-12 DEB, 43541 is space debris in HEO originally from a launch on Fri, 26 Oct 2007 UTC launched from the Tyuratam Missile And Space Complex (TTMTR). Debris objects in space refer to the collection of defunct objects orbiting the Earth. Examples of debris include non-operational satellites, rocket bodies, and fragments generated from explosions, collisions, or faulty payload assembly.

Loading next visibility...
Identifier
43541, 2007-052AH
Orbit
HEO
Country
Flag of CISCIS
Related business
Manufacturer
RKKE
Mission
Spacecraft
Bus & Motor
Unknown
Mass
Unknown
Launch date (UTC)
2007-10-26 (18 years ago)
Launch vehicle
Unknown
Launch site
Tyuratam Missile And Space Complex (TTMTR)
Object type
Payload
Rocket body
Debris
Shape & HBR
Unknown shape, 0.7 m
Radar Cross Section
Medium (>0.1 m² and <1 m²)

Expand to show TLE details & history
Last TLE update: 3 days ago

TLE from 3 days ago
0 SL-12 DEB
1 43541U 07052AH  26034.05149251  .00000067  00000-0  44255-3 0  9999
2 43541  65.0967 324.5696 5696338 216.8982  85.5785  4.26057926117933
Epoch: 2026-02-03T01:14Z
TLE epoch observation values (Epoch: 2026-02-03T01:14:08.952Z)
Latitude
-0.0001°
Longitude
172.79962°
Altitude
13,588.281 km
Speed
3.89 km/s
True Right ascension
21h 38m 17s
True Declination
0° 00' 00"
Sunlit
Object was in daylight at epoch
Visualization orbit readout
Latitude
Unknown
Longitude
Unknown
Altitude
Unknown
Speed
Unknown
Apparent Right ascension
Unknown
Apparent Declination
Unknown
Sunlit
N/A
Visualization observer readout
Local Sidereal Time
00:24:40
Azimuth
Unknown
Elevation
Unknown
Doppler factor
Unknown
Orbital elements
Apogee altitude
18,848.352 km
Perigee altitude
538.526 km
Semi-major axis
16,071.576 km
Eccentricity
0.56963
Inclination
65.0967°
RAAN
324.5696°
Arg. of periapsis
216.8982°
True anomaly
143.18849°
Mean anomaly
85.5785°
Eccentric anomaly
115.12746°
Mean motion
1.06526 °/min
Orbital period
337.95 mins
BSTAR
0.00044255
Loading maneuver chart data...
Computing Atmospheric mass density...
Loading historical data...
Loading historical data...
Loading historical data...
Loading historical data...
Loading historical data...
Loading historical data...
Loading historical data...

Documentation

Showing up to 5 results
|